M I D A S
Marine Information and Data Acquisition System
Tripno 1805 of the Zeeleeuw from 2009-11-06 07:33:50 to 2009-11-06 14:23:38
Back to CruiseResearch ActivitiesStationsMapUnderway DataData graphs

EquipmentUnitsComments
TimeDGPSUTC
LatitudeDGPSDM.mWGS84
LongitudeDGPSDM.mWGS84
SpeedMeteo Stationm/sRelative wind speed
DirectionMeteo StationdegRelative wind direction
TemperatureMeteo Stationdeg CelciusAir temperature
PressureMeteo StationPaAtmospheric pressure
HumidityMeteo Station%Relative humidity
Missing or incorrect values are displayed as -999
Metereological data collected by the RV Zeeleeuw from 2009-11-06 07:29:44 to 2009-11-06 14:23:38
                                                                                    Next 1000 lines
Time Latitude Longitude Speed Direction Temperature Pressure Humidity
2009-11-06 07:29:54 51°13.664 2°55.957 -999 12 8.1 100290 44
2009-11-06 07:29:59 51°13.665 2°55.954 -999 14 8.1 100290 44
2009-11-06 07:30:04 51°13.666 2°55.95 -999 28 8.1 100290 44
2009-11-06 07:30:09 51°13.668 2°55.946 -999 34 8.1 100290 44
2009-11-06 07:30:15 51°13.669 2°55.94 -999 26 8.1 100290 44
2009-11-06 07:30:21 51°13.671 2°55.934 -999 26 8.1 100290 44
2009-11-06 07:30:26 51°13.673 2°55.928 -999 25 8.1 100290 44
2009-11-06 07:30:32 51°13.675 2°55.921 -999 27 8.1 100300 44
2009-11-06 07:30:38 51°13.676 2°55.913 -999 35 8.1 100300 44
2009-11-06 07:30:43 51°13.678 2°55.906 -999 24 8.1 100300 44
2009-11-06 07:30:48 51°13.679 2°55.899 -999 32 8.1 100300 44
2009-11-06 07:30:53 51°13.681 2°55.892 -999 40 8.2 100300 44
2009-11-06 07:30:57 51°13.682 2°55.887 -999 78 8.2 100300 44
2009-11-06 07:31:03 51°13.683 2°55.878 -999 23 8.1 100300 44
2009-11-06 07:31:08 51°13.685 2°55.87 -999 41 8.1 100300 44
2009-11-06 07:31:13 51°13.686 2°55.863 -999 36 8.1 100300 44
2009-11-06 07:31:17 51°13.687 2°55.857 -999 78 8.1 100300 44
2009-11-06 07:31:22 51°13.689 2°55.849 -999 41 8.1 100290 43
2009-11-06 07:31:28 51°13.69 2°55.841 -999 34 8.1 100290 43
2009-11-06 07:31:33 51°13.691 2°55.834 -999 31 8.2 100290 44
2009-11-06 07:31:38 51°13.692 2°55.827 -999 22 8.2 100290 44
2009-11-06 07:31:42 51°13.693 2°55.821 -999 36 8.2 100290 44
2009-11-06 07:31:48 51°13.695 2°55.812 -999 23 8.2 100290 44
2009-11-06 07:31:53 51°13.696 2°55.806 -999 36 8.2 100300 44
2009-11-06 07:31:58 51°13.697 2°55.799 -999 26 8.2 100300 44
2009-11-06 07:32:02 51°13.698 2°55.793 -999 39 8.2 100300 44
2009-11-06 07:32:08 51°13.699 2°55.785 -999 33 8.2 100300 44
2009-11-06 07:32:13 51°13.7 2°55.779 -999 33 8.2 100290 44
2009-11-06 07:32:18 51°13.7 2°55.773 -999 35 8.2 100290 44
2009-11-06 07:32:22 51°13.701 2°55.768 -999 36 8.2 100290 44
2009-11-06 07:32:28 51°13.701 2°55.761 -999 36 8.2 100290 44
2009-11-06 07:32:33 51°13.702 2°55.756 -999 24 8.2 100290 44
2009-11-06 07:32:38 51°13.703 2°55.751 -999 42 8.2 100290 44
2009-11-06 07:32:42 51°13.703 2°55.748 -999 44 8.2 100290 44
2009-11-06 07:32:47 51°13.703 2°55.744 -999 78 8.2 100290 44
2009-11-06 07:32:52 51°13.703 2°55.741 -999 23 8.2 100300 44
2009-11-06 07:32:57 51°13.704 2°55.739 -999 78 8.2 100300 44
2009-11-06 07:33:02 51°13.704 2°55.738 -999 41 8.2 100300 44
2009-11-06 07:33:06 51°13.704 2°55.737 -999 78 8.2 100300 44
2009-11-06 07:33:11 51°13.705 2°55.737 -999 42 8.2 100300 44
2009-11-06 07:33:16 51°13.706 2°55.736 -999 41 8.2 100300 44
2009-11-06 07:33:21 51°13.707 2°55.736 -999 44 8.2 100300 44
2009-11-06 07:33:26 51°13.708 2°55.737 -999 78 8.2 100300 44
2009-11-06 07:33:30 51°13.708 2°55.737 -999 23 8.2 100300 44
2009-11-06 07:33:36 51°13.71 2°55.737 -999 77 8.2 100300 44
2009-11-06 07:33:41 51°13.711 2°55.738 -999 23 8.1 100300 44
2009-11-06 07:33:45 51°13.712 2°55.738 -999 78 8.1 100300 44
2009-11-06 07:33:50 51°13.713 2°55.738 -999 23 8.2 100300 44
2009-11-06 07:33:55 51°13.714 2°55.738 -999 78 8.2 100300 44
2009-11-06 07:34:00 51°13.715 2°55.737 -999 23 8.2 100300 43
2009-11-06 07:34:05 51°13.715 2°55.737 -999 77 8.2 100300 43
2009-11-06 07:34:10 51°13.715 2°55.736 -999 23 8.2 100300 44
2009-11-06 07:34:14 51°13.714 2°55.735 -999 78 8.2 100300 44
2009-11-06 07:34:19 51°13.713 2°55.734 -999 23 8.2 100300 44
2009-11-06 07:34:24 51°13.712 2°55.733 -999 78 8.2 100300 44
2009-11-06 07:34:29 51°13.711 2°55.731 -999 23 8.2 100300 44
2009-11-06 07:34:34 51°13.709 2°55.73 -999 78 8.2 100300 44
2009-11-06 07:34:39 51°13.708 2°55.729 -999 23 8.2 100300 44
2009-11-06 07:34:45 51°13.706 2°55.728 -999 78 8.2 100300 44
2009-11-06 07:34:50 51°13.705 2°55.727 0.1 18 8.2 100300 44
2009-11-06 07:34:54 51°13.705 2°55.726 0.1 77 8.2 100300 44
2009-11-06 07:34:59 51°13.705 2°55.725 0.1 23 8.3 100300 44
2009-11-06 07:35:04 51°13.706 2°55.724 -999 78 8.3 100300 44
2009-11-06 07:35:09 51°13.708 2°55.723 -999 23 8.2 100300 44
2009-11-06 07:35:15 51°13.712 2°55.72 -999 78 8.2 100300 44
2009-11-06 07:35:19 51°13.715 2°55.718 -999 268 8.3 100310 44
2009-11-06 07:35:24 51°13.719 2°55.715 -999 282 8.3 100310 44
2009-11-06 07:35:29 51°13.724 2°55.712 -999 259 8.3 100300 44
2009-11-06 07:35:34 51°13.729 2°55.708 -999 282 8.3 100300 44
2009-11-06 07:35:39 51°13.734 2°55.703 -999 266 8.3 100310 44
2009-11-06 07:35:44 51°13.74 2°55.699 0.1 282 8.3 100310 44
2009-11-06 07:35:49 51°13.747 2°55.694 0.1 26 8.3 100300 44
2009-11-06 07:35:54 51°13.753 2°55.689 -999 287 8.3 100300 44
2009-11-06 07:35:59 51°13.76 2°55.683 -999 263 8.3 100300 44
2009-11-06 07:36:04 51°13.767 2°55.678 -999 283 8.3 100300 44
2009-11-06 07:36:09 51°13.775 2°55.672 -999 251 8.3 100310 44
2009-11-06 07:36:14 51°13.782 2°55.666 -999 282 8.3 100310 44
2009-11-06 07:36:19 51°13.791 2°55.661 -999 24 8.3 100310 44
2009-11-06 07:36:24 51°13.799 2°55.655 -999 283 8.3 100310 44
2009-11-06 07:36:29 51°13.808 2°55.648 -999 23 8.2 100300 44
2009-11-06 07:36:34 51°13.817 2°55.642 -999 282 8.2 100300 44
2009-11-06 07:36:39 51°13.826 2°55.636 -999 23 8.2 100310 43
2009-11-06 07:36:44 51°13.835 2°55.629 -999 283 8.2 100310 43
2009-11-06 07:36:49 51°13.845 2°55.622 -999 315 8.2 100300 44
2009-11-06 07:36:54 51°13.854 2°55.615 -999 282 8.2 100300 44
2009-11-06 07:36:59 51°13.863 2°55.608 -999 323 8.2 100310 44
2009-11-06 07:37:04 51°13.873 2°55.601 -999 282 8.2 100310 44
2009-11-06 07:37:09 51°13.883 2°55.594 -999 323 8.2 100310 44
2009-11-06 07:37:14 51°13.893 2°55.586 -999 282 8.2 100310 44
2009-11-06 07:37:19 51°13.902 2°55.579 -999 22 8.2 100300 44
2009-11-06 07:37:24 51°13.913 2°55.571 -999 282 8.2 100300 44
2009-11-06 07:37:29 51°13.923 2°55.564 -999 23 8.2 100300 44
2009-11-06 07:37:34 51°13.933 2°55.556 -999 282 8.2 100300 44
2009-11-06 07:37:39 51°13.943 2°55.548 -999 23 8.2 100300 44
2009-11-06 07:37:44 51°13.954 2°55.541 -999 282 8.2 100300 44
2009-11-06 07:37:49 51°13.965 2°55.533 -999 23 8.2 100310 44
2009-11-06 07:37:54 51°13.976 2°55.525 -999 282 8.2 100310 44
2009-11-06 07:37:59 51°13.986 2°55.517 -999 22 8.2 100300 44
2009-11-06 07:38:04 51°13.997 2°55.508 -999 282 8.2 100300 44
2009-11-06 07:38:09 51°14.007 2°55.5 -999 23 8.2 100310 44
2009-11-06 07:38:14 51°14.018 2°55.492 -999 282 8.2 100310 44
2009-11-06 07:38:19 51°14.029 2°55.484 -999 23 8.3 100310 44
2009-11-06 07:38:24 51°14.04 2°55.476 -999 283 8.3 100310 44
2009-11-06 07:38:29 51°14.051 2°55.467 -999 23 8.3 100310 44
2009-11-06 07:38:34 51°14.061 2°55.459 -999 283 8.3 100310 44
2009-11-06 07:38:38 51°14.07 2°55.452 -999 23 8.3 100310 44
2009-11-06 07:38:44 51°14.083 2°55.442 -999 282 8.3 100310 44
2009-11-06 07:38:49 51°14.094 2°55.432 -999 23 8.3 100310 44
2009-11-06 07:38:54 51°14.105 2°55.423 -999 282 8.3 100310 44
2009-11-06 07:38:59 51°14.115 2°55.414 -999 23 8.3 100310 44
2009-11-06 07:39:04 51°14.126 2°55.404 -999 282 8.3 100310 44
2009-11-06 07:39:09 51°14.137 2°55.395 -999 23 8.3 100310 44
2009-11-06 07:39:14 51°14.148 2°55.385 -999 282 8.3 100310 44
2009-11-06 07:39:19 51°14.158 2°55.375 -999 316 8.3 100310 44
2009-11-06 07:39:24 51°14.169 2°55.365 -999 282 8.3 100310 44
2009-11-06 07:39:29 51°14.179 2°55.353 -999 23 8.2 100310 44
2009-11-06 07:39:34 51°14.189 2°55.342 -999 282 8.2 100310 44
2009-11-06 07:39:39 51°14.199 2°55.33 -999 23 8.3 100310 44
2009-11-06 07:39:44 51°14.209 2°55.318 -999 283 8.3 100310 44
2009-11-06 07:39:49 51°14.219 2°55.305 -999 22 8.3 100310 44
2009-11-06 07:39:54 51°14.228 2°55.292 -999 282 8.3 100310 44
2009-11-06 07:39:59 51°14.238 2°55.279 -999 23 8.3 100310 45
2009-11-06 07:40:04 51°14.247 2°55.265 -999 282 8.3 100310 45
2009-11-06 07:40:09 51°14.256 2°55.251 -999 315 8.3 100310 45
2009-11-06 07:40:14 51°14.265 2°55.236 0.1 282 8.3 100310 45
2009-11-06 07:40:19 51°14.275 2°55.222 0.1 321 8.3 100310 44
2009-11-06 07:40:24 51°14.284 2°55.206 0.1 283 8.3 100310 44
2009-11-06 07:40:29 51°14.293 2°55.19 0.1 25 8.3 100300 44
2009-11-06 07:40:34 51°14.302 2°55.174 1.7 278 8.3 100300 44
2009-11-06 07:40:38 51°14.31 2°55.161 1 19 8.3 100300 44
2009-11-06 07:40:44 51°14.321 2°55.141 2.2 282 8.3 100300 44
2009-11-06 07:40:49 51°14.33 2°55.123 5.2 19 8.3 100300 45
2009-11-06 07:40:54 51°14.339 2°55.106 3.5 279 8.3 100300 45
2009-11-06 07:40:59 51°14.348 2°55.088 0.2 19 8.3 100300 46
2009-11-06 07:41:04 51°14.357 2°55.07 0.3 282 8.3 100300 46
2009-11-06 07:41:09 51°14.367 2°55.052 2 18 8.3 100300 46
2009-11-06 07:41:14 51°14.376 2°55.034 0.2 283 8.3 100300 46
2009-11-06 07:41:19 51°14.385 2°55.016 3.8 21 8.3 100300 43
2009-11-06 07:41:24 51°14.395 2°54.998 3.4 281 8.3 100300 43
2009-11-06 07:41:29 51°14.404 2°54.979 4.5 245 8.3 100300 44
2009-11-06 07:41:34 51°14.414 2°54.961 3.1 282 8.3 100300 44
2009-11-06 07:41:39 51°14.424 2°54.944 3.3 26 8.3 100290 46
2009-11-06 07:41:44 51°14.435 2°54.927 3.9 281 8.3 100290 46
2009-11-06 07:41:49 51°14.446 2°54.909 5.3 23 8.3 100300 44
2009-11-06 07:41:54 51°14.457 2°54.892 3 282 8.3 100300 44
2009-11-06 07:41:59 51°14.467 2°54.875 2.8 247 8.3 100300 45
2009-11-06 07:42:04 51°14.478 2°54.857 4.3 280 8.3 100300 45
2009-11-06 07:42:09 51°14.49 2°54.841 2.1 22 8.3 100300 46
2009-11-06 07:42:14 51°14.501 2°54.825 2.9 280 8.3 100300 46
2009-11-06 07:42:19 51°14.514 2°54.81 3.8 248 8.3 100300 43
2009-11-06 07:42:24 51°14.526 2°54.795 4.6 279 8.3 100300 43
2009-11-06 07:42:29 51°14.539 2°54.781 2.1 255 8.4 100300 43
2009-11-06 07:42:34 51°14.552 2°54.767 0.4 282 8.4 100300 43
2009-11-06 07:42:39 51°14.564 2°54.753 0.1 247 8.4 100300 46
2009-11-06 07:42:44 51°14.577 2°54.74 0.1 282 8.4 100300 46
2009-11-06 07:42:49 51°14.591 2°54.728 -999 252 8.4 100310 45
2009-11-06 07:42:54 51°14.604 2°54.718 -999 282 8.4 100310 45
2009-11-06 07:42:58 51°14.615 2°54.709 -999 248 8.4 100300 45
2009-11-06 07:43:04 51°14.631 2°54.696 -999 282 8.4 100300 45
2009-11-06 07:43:09 51°14.645 2°54.685 -999 248 8.4 100310 44
2009-11-06 07:43:14 51°14.658 2°54.674 -999 282 8.4 100310 44
2009-11-06 07:43:19 51°14.672 2°54.663 -999 24 8.4 100310 45
2009-11-06 07:43:24 51°14.685 2°54.652 -999 282 8.4 100310 45
2009-11-06 07:43:29 51°14.699 2°54.641 -999 23 8.4 100300 45
2009-11-06 07:43:34 51°14.713 2°54.63 -999 282 8.4 100300 45
2009-11-06 07:43:38 51°14.724 2°54.622 -999 23 8.4 100300 45
2009-11-06 07:43:44 51°14.74 2°54.609 -999 282 8.4 100300 45
2009-11-06 07:43:49 51°14.754 2°54.599 -999 247 8.4 100300 45
2009-11-06 07:43:54 51°14.768 2°54.588 -999 282 8.4 100300 45
2009-11-06 07:43:59 51°14.781 2°54.578 -999 252 8.5 100300 45
2009-11-06 07:44:04 51°14.795 2°54.569 0.1 282 8.5 100300 45
2009-11-06 07:44:09 51°14.809 2°54.558 0.1 251 8.5 100300 45
2009-11-06 07:44:14 51°14.823 2°54.548 -999 306 8.5 100300 45
2009-11-06 07:44:18 51°14.834 2°54.54 -999 254 8.5 100310 44
2009-11-06 07:44:24 51°14.85 2°54.527 -999 283 8.5 100310 44
2009-11-06 07:44:29 51°14.864 2°54.517 -999 248 8.5 100310 45
2009-11-06 07:44:34 51°14.878 2°54.507 -999 282 8.5 100310 45
2009-11-06 07:44:39 51°14.892 2°54.497 3.7 250 8.5 100310 44
2009-11-06 07:44:44 51°14.905 2°54.487 3.9 286 8.5 100310 44
2009-11-06 07:44:49 51°14.919 2°54.477 3.5 250 8.5 100300 45
2009-11-06 07:44:54 51°14.933 2°54.467 4.5 286 8.5 100300 45
2009-11-06 07:44:58 51°14.944 2°54.459 3.4 260 8.5 100300 43
2009-11-06 07:45:04 51°14.96 2°54.446 2.6 281 8.5 100300 43
2009-11-06 07:45:09 51°14.974 2°54.436 3.4 255 8.5 100310 43
2009-11-06 07:45:14 51°14.988 2°54.427 2.4 281 8.5 100310 43
2009-11-06 07:45:18 51°14.999 2°54.418 2 260 8.5 100310 45
2009-11-06 07:45:24 51°15.015 2°54.406 0.4 282 8.5 100310 45
2009-11-06 07:45:29 51°15.029 2°54.395 0.2 258 8.5 100310 47
2009-11-06 07:45:34 51°15.043 2°54.385 0.2 283 8.5 100310 47
2009-11-06 07:45:38 51°15.054 2°54.377 0.2 251 8.5 100310 46
2009-11-06 07:45:44 51°15.071 2°54.365 0.1 282 8.5 100310 46
2009-11-06 07:45:49 51°15.085 2°54.355 1.8 254 8.5 100310 45
2009-11-06 07:45:54 51°15.099 2°54.345 0.2 282 8.5 100310 45
2009-11-06 07:45:59 51°15.112 2°54.335 0.1 255 8.5 100310 45
2009-11-06 07:46:04 51°15.126 2°54.325 0.1 282 8.5 100310 45
2009-11-06 07:46:09 51°15.14 2°54.315 2.6 250 8.5 100310 45
2009-11-06 07:46:14 51°15.154 2°54.305 2.6 278 8.5 100310 45
2009-11-06 07:46:19 51°15.168 2°54.295 3.3 250 8.5 100310 45
2009-11-06 07:46:24 51°15.182 2°54.284 2.1 278 8.5 100310 45
2009-11-06 07:46:29 51°15.195 2°54.274 1.4 18 8.6 100310 46
2009-11-06 07:46:34 51°15.209 2°54.263 2.7 285 8.6 100310 46
2009-11-06 07:46:39 51°15.223 2°54.253 2.9 255 8.6 100310 43
2009-11-06 07:46:44 51°15.237 2°54.243 3.5 279 8.6 100310 43
2009-11-06 07:46:49 51°15.251 2°54.233 3.4 260 8.6 100310 43
2009-11-06 07:46:54 51°15.264 2°54.223 2.7 282 8.6 100310 43
2009-11-06 07:46:58 51°15.276 2°54.215 0.2 253 8.6 100310 43
2009-11-06 07:47:04 51°15.292 2°54.202 0.1 282 8.6 100310 43
2009-11-06 07:47:09 51°15.306 2°54.192 0.1 258 8.6 100310 45
2009-11-06 07:47:14 51°15.319 2°54.182 1.8 285 8.6 100310 45
2009-11-06 07:47:18 51°15.331 2°54.173 0.3 257 8.6 100310 44
2009-11-06 07:47:24 51°15.347 2°54.161 2.4 281 8.6 100310 44
2009-11-06 07:47:29 51°15.361 2°54.151 1.6 251 8.6 100310 43
2009-11-06 07:47:34 51°15.375 2°54.141 0.5 278 8.6 100310 43
2009-11-06 07:47:38 51°15.386 2°54.133 2.7 256 8.6 100320 45
2009-11-06 07:47:44 51°15.402 2°54.121 1.6 283 8.6 100320 45
2009-11-06 07:47:49 51°15.416 2°54.111 2.4 256 8.6 100310 43
2009-11-06 07:47:54 51°15.43 2°54.101 2.3 282 8.6 100310 43
2009-11-06 07:47:59 51°15.444 2°54.091 1 250 8.7 100310 44
2009-11-06 07:48:04 51°15.458 2°54.081 1.7 282 8.7 100310 44
2009-11-06 07:48:09 51°15.472 2°54.071 2.6 251 8.7 100310 44
2009-11-06 07:48:14 51°15.486 2°54.061 2.5 282 8.7 100310 44
2009-11-06 07:48:18 51°15.497 2°54.053 3.3 256 8.7 100310 47
2009-11-06 07:48:24 51°15.514 2°54.041 4.5 284 8.7 100310 47
2009-11-06 07:48:29 51°15.528 2°54.03 5.8 255 8.7 100310 46
2009-11-06 07:48:34 51°15.542 2°54.019 3.8 283 8.7 100310 46
2009-11-06 07:48:39 51°15.555 2°54.009 3 255 8.7 100310 46
2009-11-06 07:48:44 51°15.569 2°53.999 3 280 8.7 100310 46
2009-11-06 07:48:49 51°15.583 2°53.988 0.1 250 8.7 100310 46
2009-11-06 07:48:54 51°15.597 2°53.978 2.3 287 8.7 100310 46
2009-11-06 07:48:59 51°15.611 2°53.967 3.1 255 8.7 100310 44
2009-11-06 07:49:04 51°15.625 2°53.957 2.8 286 8.7 100310 44
2009-11-06 07:49:09 51°15.639 2°53.946 3.2 258 8.7 100310 45
2009-11-06 07:49:14 51°15.653 2°53.936 1.4 281 8.7 100310 45
2009-11-06 07:49:19 51°15.666 2°53.926 0.1 258 8.7 100310 43
2009-11-06 07:49:24 51°15.68 2°53.916 0.1 283 8.7 100310 43
2009-11-06 07:49:29 51°15.694 2°53.905 0.1 254 8.8 100310 43
2009-11-06 07:49:34 51°15.708 2°53.895 3.8 280 8.8 100310 43
2009-11-06 07:49:38 51°15.719 2°53.886 4.6 260 8.8 100310 45
2009-11-06 07:49:44 51°15.736 2°53.873 4 280 8.8 100310 45
2009-11-06 07:49:49 51°15.75 2°53.863 2.6 254 8.8 100310 44
2009-11-06 07:49:54 51°15.764 2°53.852 4.1 284 8.8 100310 44
2009-11-06 07:49:58 51°15.775 2°53.844 4 255 8.8 100310 46
2009-11-06 07:50:04 51°15.791 2°53.831 4.2 283 8.8 100310 46
2009-11-06 07:50:09 51°15.805 2°53.82 2.7 256 8.8 100310 44
2009-11-06 07:50:14 51°15.819 2°53.809 0.6 280 8.8 100310 44
2009-11-06 07:50:18 51°15.83 2°53.801 0.1 251 8.8 100310 46
2009-11-06 07:50:24 51°15.847 2°53.788 0.1 282 8.8 100310 46
2009-11-06 07:50:29 51°15.861 2°53.777 2.5 251 8.8 100310 45
2009-11-06 07:50:34 51°15.875 2°53.766 2.9 281 8.8 100310 45
2009-11-06 07:50:39 51°15.889 2°53.756 3.5 260 8.8 100310 45
2009-11-06 07:50:44 51°15.902 2°53.745 3.8 279 8.8 100310 45
2009-11-06 07:50:49 51°15.916 2°53.732 3.5 257 8.8 100300 46
2009-11-06 07:50:54 51°15.929 2°53.72 5.3 279 8.8 100300 46
2009-11-06 07:50:59 51°15.942 2°53.707 4.1 251 8.8 100300 43
2009-11-06 07:51:04 51°15.955 2°53.693 3.4 278 8.8 100300 43
2009-11-06 07:51:09 51°15.968 2°53.679 5.1 250 8.8 100310 46
2009-11-06 07:51:14 51°15.981 2°53.665 4.5 281 8.8 100310 46
2009-11-06 07:51:19 51°15.993 2°53.651 4.8 255 8.8 100300 47
2009-11-06 07:51:24 51°16.006 2°53.636 5 280 8.8 100300 47
2009-11-06 07:51:29 51°16.019 2°53.621 4.7 252 8.8 100300 45
2009-11-06 07:51:34 51°16.031 2°53.606 5.5 287 8.8 100300 45
2009-11-06 07:51:38 51°16.041 2°53.594 5.1 21 8.8 100300 45
2009-11-06 07:51:44 51°16.056 2°53.576 3.5 279 8.8 100300 45
2009-11-06 07:51:49 51°16.069 2°53.56 4.8 249 8.8 100310 44
2009-11-06 07:51:54 51°16.082 2°53.545 5.7 282 8.8 100310 44
2009-11-06 07:51:58 51°16.092 2°53.533 3.3 19 8.8 100310 43
2009-11-06 07:52:04 51°16.107 2°53.516 4.1 286 8.8 100310 43
2009-11-06 07:52:09 51°16.119 2°53.501 3.9 251 8.8 100300 46
2009-11-06 07:52:14 51°16.132 2°53.487 4.6 280 8.8 100300 46
2009-11-06 07:52:18 51°16.143 2°53.475 4.8 253 8.8 100300 44
2009-11-06 07:52:24 51°16.158 2°53.458 5.2 285 8.8 100300 44
2009-11-06 07:52:29 51°16.171 2°53.443 3 248 8.8 100300 46
2009-11-06 07:52:34 51°16.184 2°53.429 4.8 285 8.8 100300 46
2009-11-06 07:52:38 51°16.194 2°53.418 3.7 25 8.9 100300 42
2009-11-06 07:52:44 51°16.21 2°53.401 4.4 285 8.9 100300 42
2009-11-06 07:52:49 51°16.223 2°53.387 4.1 249 8.8 100300 43
2009-11-06 07:52:54 51°16.236 2°53.373 4.1 280 8.8 100300 43
2009-11-06 07:52:59 51°16.249 2°53.359 6.3 255 8.8 100300 43
2009-11-06 07:53:04 51°16.262 2°53.345 7 281 8.8 100300 43
2009-11-06 07:53:09 51°16.275 2°53.331 6.5 258 8.9 100300 44
2009-11-06 07:53:14 51°16.289 2°53.317 6.1 286 8.9 100300 44
2009-11-06 07:53:18 51°16.299 2°53.306 4.5 255 8.9 100300 45
2009-11-06 07:53:24 51°16.315 2°53.289 3.7 285 8.9 100300 45
2009-11-06 07:53:29 51°16.328 2°53.275 4.5 255 8.9 100300 46
2009-11-06 07:53:34 51°16.341 2°53.261 4.5 286 8.9 100300 46
2009-11-06 07:53:39 51°16.354 2°53.247 3.6 252 8.9 100310 43
2009-11-06 07:53:44 51°16.367 2°53.233 4.9 280 8.9 100310 43
2009-11-06 07:53:49 51°16.38 2°53.219 4.9 252 8.9 100300 45
2009-11-06 07:53:54 51°16.393 2°53.206 5.8 279 8.9 100300 45
2009-11-06 07:53:58 51°16.403 2°53.195 4.3 252 8.9 100300 44
2009-11-06 07:54:04 51°16.419 2°53.178 5.5 284 8.9 100300 44
2009-11-06 07:54:09 51°16.431 2°53.164 4.6 254 8.9 100300 46
2009-11-06 07:54:14 51°16.445 2°53.15 4.6 287 8.9 100300 46
2009-11-06 07:54:18 51°16.455 2°53.139 4.3 256 8.9 100310 46
2009-11-06 07:54:24 51°16.47 2°53.123 3.8 285 8.9 100310 46
2009-11-06 07:54:29 51°16.483 2°53.11 4.9 254 8.9 100300 46
2009-11-06 07:54:34 51°16.497 2°53.096 6.2 282 8.9 100300 46
2009-11-06 07:54:38 51°16.507 2°53.085 5.6 256 8.9 100300 44
2009-11-06 07:54:44 51°16.523 2°53.069 4.5 285 8.9 100300 44
2009-11-06 07:54:49 51°16.536 2°53.056 5.5 258 9 100300 44
2009-11-06 07:54:54 51°16.549 2°53.042 4.4 279 9 100300 44
2009-11-06 07:54:58 51°16.559 2°53.031 5.6 261 9 100300 44
2009-11-06 07:55:04 51°16.575 2°53.015 4.7 280 9 100300 44
2009-11-06 07:55:09 51°16.588 2°53.001 5.1 257 9 100300 46
2009-11-06 07:55:14 51°16.601 2°52.988 5.7 280 9 100300 46
2009-11-06 07:55:18 51°16.611 2°52.977 3.7 258 9 100300 45
2009-11-06 07:55:24 51°16.627 2°52.961 4.1 278 9 100300 45
2009-11-06 07:55:29 51°16.64 2°52.948 3.3 252 9 100300 46
2009-11-06 07:55:34 51°16.653 2°52.934 4.3 285 9 100300 46
2009-11-06 07:55:39 51°16.666 2°52.921 4.2 256 9 100300 47
2009-11-06 07:55:44 51°16.68 2°52.907 4.5 281 9 100300 47
2009-11-06 07:55:49 51°16.693 2°52.894 3.6 255 9 100300 46
2009-11-06 07:55:54 51°16.706 2°52.881 3.8 286 9 100300 46
2009-11-06 07:55:59 51°16.719 2°52.868 4.2 256 9 100300 45
2009-11-06 07:56:04 51°16.732 2°52.855 6.8 286 9 100300 45
2009-11-06 07:56:09 51°16.745 2°52.842 5.6 256 9.1 100300 45
2009-11-06 07:56:14 51°16.758 2°52.828 5 280 9.1 100300 45
2009-11-06 07:56:18 51°16.769 2°52.818 5.1 255 9.1 100300 44
2009-11-06 07:56:24 51°16.785 2°52.803 4.5 280 9.1 100300 44
2009-11-06 07:56:29 51°16.798 2°52.792 4.7 259 9 100300 46
2009-11-06 07:56:34 51°16.811 2°52.781 3.4 288 9 100300 46
2009-11-06 07:56:38 51°16.822 2°52.772 5 260 9.1 100300 44
2009-11-06 07:56:44 51°16.838 2°52.759 4.5 284 9.1 100300 44
2009-11-06 07:56:49 51°16.852 2°52.748 3.4 259 9.1 100300 46
2009-11-06 07:56:54 51°16.865 2°52.738 3.4 285 9.1 100300 46
2009-11-06 07:56:58 51°16.876 2°52.73 2.9 261 9.1 100300 47
2009-11-06 07:57:04 51°16.893 2°52.72 3.7 280 9.1 100300 47
2009-11-06 07:57:09 51°16.907 2°52.711 2.4 258 9.1 100310 43
2009-11-06 07:57:14 51°16.921 2°52.704 2.4 285 9.1 100310 43
2009-11-06 07:57:18 51°16.932 2°52.697 4.9 258 9.1 100300 44
2009-11-06 07:57:24 51°16.949 2°52.689 4.8 285 9.1 100300 44
2009-11-06 07:57:29 51°16.963 2°52.682 3.2 261 9.1 100300 45
2009-11-06 07:57:34 51°16.977 2°52.676 1.6 278 9.1 100300 45
2009-11-06 07:57:38 51°16.989 2°52.671 0.8 265 9.2 100300 44
2009-11-06 07:57:44 51°17.006 2°52.666 0.2 277 9.2 100300 44
2009-11-06 07:57:49 51°17.021 2°52.661 1.5 268 9.2 100300 46
2009-11-06 07:57:54 51°17.036 2°52.658 1.3 287 9.2 100300 46
2009-11-06 07:57:59 51°17.05 2°52.655 1.2 270 9.2 100300 44
2009-11-06 07:58:04 51°17.065 2°52.653 0.2 83 9.2 100300 44
2009-11-06 07:58:09 51°17.079 2°52.65 0.1 21 9.1 100300 48
2009-11-06 07:58:14 51°17.094 2°52.648 -999 283 9.1 100300 48
2009-11-06 07:58:19 51°17.108 2°52.647 -999 269 9.2 100300 45
2009-11-06 07:58:24 51°17.123 2°52.645 -999 78 9.2 100300 45
2009-11-06 07:58:29 51°17.137 2°52.644 -999 20 9.2 100300 45
2009-11-06 07:58:34 51°17.152 2°52.642 -999 78 9.2 100300 45
2009-11-06 07:58:38 51°17.164 2°52.642 -999 270 9.1 100300 45
2009-11-06 07:58:44 51°17.181 2°52.64 -999 78 9.1 100300 45
2009-11-06 07:58:49 51°17.196 2°52.639 -999 26 9.2 100300 45
2009-11-06 07:58:54 51°17.21 2°52.638 -999 288 9.2 100300 45
2009-11-06 07:58:58 51°17.222 2°52.638 -999 24 9.1 100300 45
2009-11-06 07:59:04 51°17.239 2°52.636 -999 78 9.1 100300 45
2009-11-06 07:59:09 51°17.254 2°52.635 -999 23 9.2 100300 45
2009-11-06 07:59:14 51°17.269 2°52.635 -999 282 9.2 100300 45
2009-11-06 07:59:19 51°17.283 2°52.634 -999 270 9.2 100300 45
2009-11-06 07:59:24 51°17.298 2°52.633 0.1 79 9.2 100300 45
2009-11-06 07:59:29 51°17.313 2°52.632 0.1 24 9.2 100300 45
2009-11-06 07:59:34 51°17.327 2°52.63 0.1 78 9.2 100300 45
2009-11-06 07:59:38 51°17.339 2°52.629 -999 23 9.2 100300 45
2009-11-06 07:59:44 51°17.357 2°52.628 -999 288 9.2 100300 45
2009-11-06 07:59:49 51°17.372 2°52.627 -999 269 9.2 100300 45
2009-11-06 07:59:54 51°17.387 2°52.626 0.3 282 9.2 100300 45
2009-11-06 07:59:59 51°17.402 2°52.625 0.1 269 9.2 100300 45
2009-11-06 08:00:04 51°17.416 2°52.624 0.1 288 9.2 100300 45
2009-11-06 08:00:09 51°17.431 2°52.623 0.1 268 9.2 100300 45
2009-11-06 08:00:14 51°17.446 2°52.622 -999 286 9.2 100300 45
2009-11-06 08:00:19 51°17.46 2°52.621 -999 270 9.3 100300 45
2009-11-06 08:00:24 51°17.475 2°52.62 -999 79 9.3 100300 45
2009-11-06 08:00:29 51°17.49 2°52.618 0.6 18 9.2 100300 45
2009-11-06 08:00:34 51°17.504 2°52.617 0.1 80 9.2 100300 45
2009-11-06 08:00:38 51°17.516 2°52.616 0.1 13 9.3 100300 44
2009-11-06 08:00:44 51°17.534 2°52.615 -999 283 9.3 100300 44
2009-11-06 08:00:49 51°17.548 2°52.614 -999 265 9.2 100300 45
2009-11-06 08:00:54 51°17.563 2°52.613 -999 -999 9.2 100300 45
2009-11-06 08:00:58 51°17.575 2°52.611 -999 266 9.2 100300 45
2009-11-06 08:01:04 51°17.592 2°52.61 -999 282 9.2 100300 45
2009-11-06 08:01:09 51°17.607 2°52.608 -999 258 9.2 100300 45
2009-11-06 08:01:14 51°17.622 2°52.607 0.1 282 9.2 100300 45
2009-11-06 08:01:18 51°17.634 2°52.605 0.1 265 9.3 100290 45
2009-11-06 08:01:24 51°17.651 2°52.604 0.1 281 9.3 100290 45
2009-11-06 08:01:29 51°17.666 2°52.602 0.1 264 9.3 100290 45
2009-11-06 08:01:34 51°17.68 2°52.601 -999 282 9.3 100290 45
2009-11-06 08:01:38 51°17.692 2°52.6 -999 265 9.3 100300 45
2009-11-06 08:01:44 51°17.71 2°52.597 -999 282 9.3 100300 45
2009-11-06 08:01:49 51°17.724 2°52.596 -999 269 9.3 100300 45
2009-11-06 08:01:54 51°17.739 2°52.593 -999 283 9.3 100300 45
2009-11-06 08:01:58 51°17.751 2°52.591 -999 267 9.3 100300 45
2009-11-06 08:02:04 51°17.768 2°52.589 -999 282 9.3 100300 45
2009-11-06 08:02:09 51°17.783 2°52.587 -999 266 9.3 100300 45
2009-11-06 08:02:14 51°17.798 2°52.585 0.1 282 9.3 100300 45
2009-11-06 08:02:19 51°17.812 2°52.584 0.1 269 9.3 100300 45
2009-11-06 08:02:24 51°17.827 2°52.582 0.1 78 9.3 100300 45
2009-11-06 08:02:29 51°17.841 2°52.58 0.1 29 9.3 100300 45
2009-11-06 08:02:34 51°17.856 2°52.578 0.1 282 9.3 100300 45
2009-11-06 08:02:39 51°17.871 2°52.577 0.1 270 9.3 100300 45
2009-11-06 08:02:44 51°17.886 2°52.575 -999 78 9.3 100300 45
2009-11-06 08:02:49 51°17.9 2°52.574 -999 263 9.3 100290 45
2009-11-06 08:02:54 51°17.915 2°52.572 -999 77 9.3 100290 45
2009-11-06 08:02:58 51°17.927 2°52.571 0.1 265 9.4 100290 45
2009-11-06 08:03:04 51°17.944 2°52.569 0.1 282 9.4 100290 45
2009-11-06 08:03:09 51°17.959 2°52.567 0.1 265 9.4 100300 45
2009-11-06 08:03:14 51°17.973 2°52.564 0.1 282 9.4 100300 45
2009-11-06 08:03:18 51°17.985 2°52.563 0.1 266 9.4 100290 44
2009-11-06 08:03:24 51°18.002 2°52.56 -999 282 9.4 100290 44
2009-11-06 08:03:29 51°18.017 2°52.557 -999 265 9.4 100290 45
2009-11-06 08:03:34 51°18.031 2°52.555 -999 282 9.4 100290 45
2009-11-06 08:03:38 51°18.043 2°52.553 0.1 27 9.4 100300 45
2009-11-06 08:03:44 51°18.061 2°52.55 0.2 282 9.4 100300 45
2009-11-06 08:03:49 51°18.075 2°52.547 0.1 265 9.4 100290 45
2009-11-06 08:03:54 51°18.09 2°52.545 -999 282 9.4 100290 45
2009-11-06 08:03:58 51°18.101 2°52.542 -999 264 9.4 100290 45
2009-11-06 08:04:04 51°18.119 2°52.54 -999 83 9.4 100290 45
2009-11-06 08:04:09 51°18.133 2°52.537 -999 325 9.4 100290 45
2009-11-06 08:04:14 51°18.148 2°52.535 -999 283 9.4 100290 45
2009-11-06 08:04:19 51°18.162 2°52.532 1.6 267 9.4 100290 45
2009-11-06 08:04:24 51°18.177 2°52.53 1.2 88 9.4 100290 45
2009-11-06 08:04:29 51°18.192 2°52.528 1.2 268 9.4 100300 45
2009-11-06 08:04:34 51°18.206 2°52.526 0.2 6 9.4 100300 45
2009-11-06 08:04:38 51°18.218 2°52.525 0.1 24 9.4 100290 47
2009-11-06 08:04:44 51°18.235 2°52.525 0.1 78 9.4 100290 47
2009-11-06 08:04:49 51°18.25 2°52.524 -999 23 9.4 100300 45
2009-11-06 08:04:54 51°18.264 2°52.527 -999 78 9.4 100300 45
2009-11-06 08:04:59 51°18.278 2°52.529 -999 23 9.4 100300 45
2009-11-06 08:05:04 51°18.293 2°52.531 -999 78 9.4 100300 45
2009-11-06 08:05:09 51°18.307 2°52.534 -999 23 9.4 100300 45
2009-11-06 08:05:14 51°18.321 2°52.537 -999 78 9.4 100300 45
2009-11-06 08:05:18 51°18.332 2°52.54 -999 23 9.4 100300 45
2009-11-06 08:05:24 51°18.349 2°52.544 -999 78 9.4 100300 45
2009-11-06 08:05:29 51°18.363 2°52.549 -999 23 9.4 100300 45
2009-11-06 08:05:34 51°18.377 2°52.552 -999 78 9.4 100300 45
2009-11-06 08:05:39 51°18.392 2°52.556 -999 24 9.4 100300 45
2009-11-06 08:05:44 51°18.406 2°52.561 -999 78 9.4 100300 45
2009-11-06 08:05:49 51°18.42 2°52.565 -999 23 9.4 100300 45
2009-11-06 08:05:54 51°18.434 2°52.569 -999 -999 9.4 100300 45
2009-11-06 08:05:58 51°18.445 2°52.573 -999 23 9.4 100290 44
2009-11-06 08:06:04 51°18.462 2°52.578 -999 78 9.4 100290 44
2009-11-06 08:06:09 51°18.476 2°52.583 -999 23 9.4 100290 45
2009-11-06 08:06:14 51°18.49 2°52.586 -999 78 9.4 100290 45
2009-11-06 08:06:18 51°18.501 2°52.591 -999 23 9.4 100290 45
2009-11-06 08:06:24 51°18.518 2°52.596 -999 78 9.4 100290 45
2009-11-06 08:06:29 51°18.532 2°52.601 -999 24 9.4 100290 45
2009-11-06 08:06:34 51°18.546 2°52.606 -999 78 9.4 100290 45
2009-11-06 08:06:39 51°18.561 2°52.611 -999 24 9.4 100300 45
2009-11-06 08:06:44 51°18.575 2°52.616 -999 77 9.4 100300 45
2009-11-06 08:06:49 51°18.589 2°52.62 -999 23 9.4 100290 45
2009-11-06 08:06:54 51°18.603 2°52.625 -999 -999 9.4 100290 45
2009-11-06 08:06:59 51°18.617 2°52.629 -999 23 9.4 100300 45
2009-11-06 08:07:04 51°18.631 2°52.635 -999 78 9.4 100300 45
2009-11-06 08:07:09 51°18.646 2°52.639 -999 23 9.4 100310 45
2009-11-06 08:07:14 51°18.66 2°52.644 -999 78 9.4 100310 45
2009-11-06 08:07:18 51°18.671 2°52.648 -999 23 9.5 100300 45
2009-11-06 08:07:24 51°18.688 2°52.654 -999 78 9.5 100300 45
2009-11-06 08:07:29 51°18.702 2°52.659 -999 23 9.5 100300 45
2009-11-06 08:07:34 51°18.716 2°52.664 -999 78 9.5 100300 45
2009-11-06 08:07:39 51°18.73 2°52.668 -999 23 9.5 100300 45
2009-11-06 08:07:44 51°18.745 2°52.673 0.1 73 9.5 100300 45
2009-11-06 08:07:49 51°18.759 2°52.678 0.1 21 9.5 100300 45
2009-11-06 08:07:54 51°18.773 2°52.682 0.1 -999 9.5 100300 45
2009-11-06 08:07:58 51°18.784 2°52.686 -999 23 9.5 100300 45
2009-11-06 08:08:04 51°18.801 2°52.691 -999 78 9.5 100300 45
2009-11-06 08:08:09 51°18.816 2°52.694 -999 23 9.5 100300 45
2009-11-06 08:08:14 51°18.83 2°52.698 -999 78 9.5 100300 45
2009-11-06 08:08:18 51°18.841 2°52.7 -999 23 9.5 100300 45
2009-11-06 08:08:24 51°18.858 2°52.705 -999 78 9.5 100300 45
2009-11-06 08:08:29 51°18.873 2°52.709 -999 23 9.5 100310 45
2009-11-06 08:08:34 51°18.887 2°52.713 -999 78 9.5 100310 45
2009-11-06 08:08:38 51°18.898 2°52.716 -999 23 9.5 100300 44
2009-11-06 08:08:44 51°18.915 2°52.722 -999 78 9.5 100300 44
2009-11-06 08:08:49 51°18.929 2°52.726 -999 24 9.5 100300 45
2009-11-06 08:08:54 51°18.943 2°52.73 -999 -999 9.5 100300 45
2009-11-06 08:08:58 51°18.955 2°52.734 -999 23 9.5 100310 45
2009-11-06 08:09:04 51°18.972 2°52.737 -999 78 9.5 100310 45
2009-11-06 08:09:09 51°18.986 2°52.742 -999 23 9.5 100310 45
2009-11-06 08:09:14 51°19.001 2°52.745 -999 78 9.5 100310 45
2009-11-06 08:09:19 51°19.015 2°52.749 -999 23 9.5 100310 45
2009-11-06 08:09:24 51°19.029 2°52.753 -999 78 9.5 100310 45
2009-11-06 08:09:29 51°19.043 2°52.758 0.1 270 9.5 100310 45
2009-11-06 08:09:34 51°19.057 2°52.762 0.1 77 9.5 100310 45
2009-11-06 08:09:38 51°19.069 2°52.766 0.1 23 9.5 100310 45
2009-11-06 08:09:44 51°19.086 2°52.771 -999 78 9.5 100310 45
2009-11-06 08:09:49 51°19.1 2°52.775 -999 24 9.5 100310 46
2009-11-06 08:09:54 51°19.114 2°52.779 -999 78 9.5 100310 46
2009-11-06 08:09:58 51°19.126 2°52.783 -999 23 9.5 100300 45
2009-11-06 08:10:04 51°19.143 2°52.788 -999 78 9.5 100300 45
2009-11-06 08:10:09 51°19.157 2°52.792 -999 23 9.6 100310 45
2009-11-06 08:10:14 51°19.171 2°52.796 -999 78 9.6 100310 45
2009-11-06 08:10:18 51°19.183 2°52.8 -999 24 9.6 100300 45
2009-11-06 08:10:24 51°19.2 2°52.804 -999 78 9.6 100300 45
2009-11-06 08:10:29 51°19.214 2°52.809 1.1 27 9.6 100300 45
2009-11-06 08:10:34 51°19.228 2°52.813 1.4 74 9.6 100300 45
2009-11-06 08:10:38 51°19.24 2°52.816 0.1 24 9.6 100310 45
2009-11-06 08:10:44 51°19.257 2°52.821 0.1 77 9.6 100310 45
2009-11-06 08:10:49 51°19.271 2°52.825 -999 23 9.6 100310 47
2009-11-06 08:10:54 51°19.285 2°52.829 -999 78 9.6 100310 47
2009-11-06 08:10:58 51°19.297 2°52.833 -999 23 9.5 100310 45
2009-11-06 08:11:04 51°19.314 2°52.838 -999 78 9.5 100310 45
2009-11-06 08:11:09 51°19.328 2°52.842 -999 23 9.5 100310 45
2009-11-06 08:11:14 51°19.343 2°52.846 -999 78 9.5 100310 45
2009-11-06 08:11:19 51°19.357 2°52.85 -999 23 9.6 100310 44
2009-11-06 08:11:24 51°19.371 2°52.854 -999 78 9.6 100310 44
2009-11-06 08:11:29 51°19.386 2°52.858 -999 23 9.6 100310 45
2009-11-06 08:11:34 51°19.4 2°52.862 -999 78 9.6 100310 45
2009-11-06 08:11:39 51°19.414 2°52.866 -999 23 9.6 100310 45
2009-11-06 08:11:44 51°19.429 2°52.869 -999 77 9.6 100310 45
2009-11-06 08:11:49 51°19.443 2°52.874 -999 23 9.6 100310 45
2009-11-06 08:11:54 51°19.457 2°52.878 -999 -999 9.6 100310 45
2009-11-06 08:11:58 51°19.469 2°52.881 -999 24 9.6 100310 45
2009-11-06 08:12:04 51°19.486 2°52.886 -999 77 9.6 100310 45
2009-11-06 08:12:09 51°19.5 2°52.89 -999 23 9.6 100310 45
2009-11-06 08:12:14 51°19.515 2°52.894 -999 78 9.6 100310 45
2009-11-06 08:12:18 51°19.526 2°52.897 -999 23 9.6 100310 45
2009-11-06 08:12:24 51°19.543 2°52.902 0.1 73 9.6 100310 45
2009-11-06 08:12:29 51°19.558 2°52.905 0.1 27 9.6 100310 45
2009-11-06 08:12:34 51°19.572 2°52.909 0.1 78 9.6 100310 45
2009-11-06 08:12:39 51°19.586 2°52.913 0.1 18 9.6 100310 45
2009-11-06 08:12:44 51°19.601 2°52.917 0.1 78 9.6 100310 45
2009-11-06 08:12:49 51°19.615 2°52.921 1.1 25 9.6 100310 45
2009-11-06 08:12:54 51°19.629 2°52.925 0.3 82 9.6 100310 45
2009-11-06 08:12:58 51°19.641 2°52.928 0.1 24 9.6 100310 45
2009-11-06 08:13:04 51°19.658 2°52.933 0.1 78 9.6 100310 45
2009-11-06 08:13:09 51°19.672 2°52.937 -999 24 9.6 100310 45
2009-11-06 08:13:14 51°19.687 2°52.941 -999 78 9.6 100310 45
2009-11-06 08:13:18 51°19.698 2°52.944 -999 24 9.6 100310 45
2009-11-06 08:13:24 51°19.715 2°52.949 -999 78 9.6 100310 45
2009-11-06 08:13:29 51°19.729 2°52.953 -999 23 9.6 100310 45
2009-11-06 08:13:34 51°19.744 2°52.958 -999 78 9.6 100310 45
2009-11-06 08:13:38 51°19.755 2°52.96 -999 23 9.6 100310 45
2009-11-06 08:13:44 51°19.772 2°52.966 -999 78 9.6 100310 45
2009-11-06 08:13:49 51°19.787 2°52.97 -999 23 9.6 100310 45
2009-11-06 08:13:54 51°19.801 2°52.973 -999 78 9.6 100310 45
2009-11-06 08:13:59 51°19.815 2°52.978 -999 23 9.6 100310 44
2009-11-06 08:14:04 51°19.829 2°52.981 -999 78 9.6 100310 44
2009-11-06 08:14:09 51°19.844 2°52.985 -999 23 9.7 100310 45
2009-11-06 08:14:14 51°19.858 2°52.989 0.1 77 9.7 100310 45
2009-11-06 08:14:18 51°19.87 2°52.992 0.1 23 9.7 100310 45
2009-11-06 08:14:24 51°19.887 2°52.997 0.1 78 9.7 100310 45
2009-11-06 08:14:29 51°19.901 2°53 -999 23 9.6 100310 44
2009-11-06 08:14:34 51°19.915 2°53.004 -999 78 9.6 100310 44
2009-11-06 08:14:38 51°19.927 2°53.006 0.1 20 9.7 100310 45
2009-11-06 08:14:44 51°19.944 2°53.011 0.1 77 9.7 100310 45
2009-11-06 08:14:49 51°19.958 2°53.015 0.1 25 9.7 100310 45
2009-11-06 08:14:54 51°19.973 2°53.019 -999 78 9.7 100310 45
2009-11-06 08:14:58 51°19.984 2°53.021 -999 267 9.7 100310 45
2009-11-06 08:15:04 51°20.001 2°53.025 -999 287 9.7 100310 45
2009-11-06 08:15:09 51°20.016 2°53.028 -999 24 9.6 100310 45
2009-11-06 08:15:14 51°20.03 2°53.032 -999 78 9.6 100310 45
2009-11-06 08:15:18 51°20.042 2°53.034 -999 23 9.7 100320 45
2009-11-06 08:15:24 51°20.059 2°53.039 -999 78 9.7 100320 45
2009-11-06 08:15:29 51°20.073 2°53.042 -999 23 9.7 100310 45
2009-11-06 08:15:34 51°20.087 2°53.046 -999 78 9.7 100310 45
2009-11-06 08:15:38 51°20.099 2°53.048 0.1 21 9.7 100310 45
2009-11-06 08:15:44 51°20.116 2°53.052 0.1 78 9.7 100310 45
2009-11-06 08:15:49 51°20.13 2°53.055 1.2 26 9.7 100320 45
2009-11-06 08:15:54 51°20.145 2°53.059 0.2 78 9.7 100320 45
2009-11-06 08:15:59 51°20.159 2°53.062 0.1 23 9.7 100310 45
2009-11-06 08:16:04 51°20.173 2°53.066 0.1 78 9.7 100310 45
2009-11-06 08:16:09 51°20.188 2°53.07 0.1 23 9.7 100310 45
2009-11-06 08:16:14 51°20.202 2°53.073 -999 78 9.7 100310 45
2009-11-06 08:16:19 51°20.216 2°53.077 -999 23 9.7 100310 45
2009-11-06 08:16:24 51°20.23 2°53.08 -999 78 9.7 100310 45
2009-11-06 08:16:29 51°20.245 2°53.083 -999 26 9.8 100310 45
2009-11-06 08:16:34 51°20.259 2°53.087 -999 78 9.8 100310 45
2009-11-06 08:16:39 51°20.273 2°53.091 -999 23 9.8 100310 44
2009-11-06 08:16:44 51°20.287 2°53.094 -999 78 9.8 100310 44
2009-11-06 08:16:49 51°20.302 2°53.097 -999 23 9.8 100310 45
2009-11-06 08:16:54 51°20.316 2°53.101 -999 78 9.8 100310 45
2009-11-06 08:16:58 51°20.327 2°53.105 -999 23 9.8 100310 45
2009-11-06 08:17:04 51°20.344 2°53.109 -999 78 9.8 100310 45
2009-11-06 08:17:09 51°20.358 2°53.112 -999 23 9.8 100310 45
2009-11-06 08:17:14 51°20.373 2°53.115 -999 78 9.8 100310 45
2009-11-06 08:17:18 51°20.384 2°53.118 -999 23 9.9 100310 45
2009-11-06 08:17:24 51°20.401 2°53.121 -999 77 9.9 100310 45
2009-11-06 08:17:29 51°20.415 2°53.125 -999 23 9.9 100320 45
2009-11-06 08:17:34 51°20.43 2°53.129 -999 78 9.9 100320 45
2009-11-06 08:17:39 51°20.444 2°53.133 -999 27 9.9 100320 45
2009-11-06 08:17:44 51°20.458 2°53.136 0.1 78 9.9 100320 45
2009-11-06 08:17:49 51°20.472 2°53.14 0.1 23 9.9 100310 45
2009-11-06 08:17:54 51°20.486 2°53.143 -999 -999 9.9 100310 45
2009-11-06 08:17:58 51°20.498 2°53.146 -999 23 9.9 100310 45
2009-11-06 08:18:04 51°20.515 2°53.151 -999 78 9.9 100310 45
2009-11-06 08:18:09 51°20.529 2°53.154 -999 23 9.9 100310 45
2009-11-06 08:18:14 51°20.543 2°53.157 -999 78 9.9 100310 45
2009-11-06 08:18:19 51°20.557 2°53.161 -999 23 9.9 100310 46
2009-11-06 08:18:24 51°20.572 2°53.164 -999 77 9.9 100310 46
2009-11-06 08:18:29 51°20.586 2°53.168 -999 23 9.9 100310 46
2009-11-06 08:18:34 51°20.6 2°53.171 -999 78 9.9 100310 46
2009-11-06 08:18:38 51°20.611 2°53.174 -999 23 9.9 100310 45
2009-11-06 08:18:44 51°20.628 2°53.178 -999 78 9.9 100310 45
2009-11-06 08:18:49 51°20.643 2°53.181 -999 23 9.9 100320 45
2009-11-06 08:18:54 51°20.657 2°53.185 -999 -999 9.9 100320 45
2009-11-06 08:18:58 51°20.668 2°53.188 -999 24 9.9 100320 45
2009-11-06 08:19:04 51°20.685 2°53.192 -999 78 9.9 100320 45
2009-11-06 08:19:09 51°20.699 2°53.196 -999 23 9.9 100310 46
2009-11-06 08:19:14 51°20.713 2°53.2 -999 78 9.9 100310 46
2009-11-06 08:19:18 51°20.724 2°53.204 -999 23 10 100320 45
2009-11-06 08:19:24 51°20.741 2°53.208 -999 78 10 100320 45
2009-11-06 08:19:29 51°20.755 2°53.212 -999 23 10 100310 46
2009-11-06 08:19:34 51°20.769 2°53.215 -999 78 10 100310 46
2009-11-06 08:19:38 51°20.78 2°53.219 -999 23 10 100310 46
2009-11-06 08:19:44 51°20.797 2°53.223 -999 77 10 100310 46
2009-11-06 08:19:49 51°20.811 2°53.228 -999 23 10 100310 46
2009-11-06 08:19:54 51°20.825 2°53.231 -999 -999 10 100310 46
2009-11-06 08:19:58 51°20.837 2°53.234 0.1 21 10.1 100310 46
2009-11-06 08:20:04 51°20.854 2°53.238 0.1 78 10.1 100310 46
2009-11-06 08:20:09 51°20.868 2°53.242 -999 23 10.1 100310 46
2009-11-06 08:20:14 51°20.882 2°53.246 -999 78 10.1 100310 46
2009-11-06 08:20:19 51°20.896 2°53.249 -999 23 10.1 100320 45
2009-11-06 08:20:24 51°20.91 2°53.252 -999 78 10.1 100320 45
2009-11-06 08:20:29 51°20.925 2°53.256 -999 23 10 100320 46
2009-11-06 08:20:34 51°20.939 2°53.259 -999 78 10 100320 46
2009-11-06 08:20:38 51°20.951 2°53.261 -999 23 10 100310 46
2009-11-06 08:20:44 51°20.968 2°53.264 -999 78 10 100310 46
2009-11-06 08:20:49 51°20.982 2°53.267 -999 267 10 100310 45
2009-11-06 08:20:54 51°20.997 2°53.27 -999 -999 10 100310 45
2009-11-06 08:20:58 51°21.008 2°53.272 -999 23 10 100310 46
2009-11-06 08:21:04 51°21.025 2°53.277 -999 78 10 100310 46
2009-11-06 08:21:09 51°21.039 2°53.281 -999 23 10.1 100310 46
2009-11-06 08:21:14 51°21.054 2°53.285 -999 78 10.1 100310 46
2009-11-06 08:21:18 51°21.065 2°53.287 -999 23 10.1 100310 46
2009-11-06 08:21:24 51°21.082 2°53.292 -999 78 10.1 100310 46
2009-11-06 08:21:29 51°21.096 2°53.295 -999 23 10.1 100310 46
2009-11-06 08:21:34 51°21.11 2°53.299 -999 78 10.1 100310 46
2009-11-06 08:21:38 51°21.121 2°53.302 -999 23 10.1 100310 46
2009-11-06 08:21:44 51°21.138 2°53.306 -999 83 10.1 100310 46
2009-11-06 08:21:49 51°21.152 2°53.309 1.5 25 10.1 100310 46
2009-11-06 08:21:54 51°21.167 2°53.313 0.2 -999 10.1 100310 46
2009-11-06 08:21:58 51°21.178 2°53.315 0.1 23 10.1 100310 45
2009-11-06 08:22:04 51°21.195 2°53.319 0.1 78 10.1 100310 45
2009-11-06 08:22:09 51°21.209 2°53.323 -999 23 10 100310 45
2009-11-06 08:22:14 51°21.223 2°53.326 -999 77 10 100310 45
2009-11-06 08:22:19 51°21.237 2°53.329 -999 23 10 100310 45
2009-11-06 08:22:24 51°21.251 2°53.332 -999 78 10 100310 45
2009-11-06 08:22:29 51°21.266 2°53.336 -999 18 10 100320 45
2009-11-06 08:22:34 51°21.28 2°53.339 -999 78 10 100320 45
2009-11-06 08:22:39 51°21.294 2°53.342 -999 23 10 100310 46
2009-11-06 08:22:44 51°21.308 2°53.346 -999 78 10 100310 46
2009-11-06 08:22:49 51°21.323 2°53.349 -999 23 10 100310 46
2009-11-06 08:22:54 51°21.337 2°53.354 -999 -999 10 100310 46
2009-11-06 08:22:59 51°21.351 2°53.356 -999 23 10 100310 46
2009-11-06 08:23:04 51°21.365 2°53.36 -999 287 10 100310 46
2009-11-06 08:23:09 51°21.379 2°53.364 -999 26 10 100310 47
2009-11-06 08:23:14 51°21.393 2°53.367 -999 78 10 100310 47
2009-11-06 08:23:18 51°21.405 2°53.37 -999 23 10.1 100300 45
2009-11-06 08:23:24 51°21.422 2°53.374 -999 78 10.1 100300 45
2009-11-06 08:23:29 51°21.436 2°53.378 -999 23 10.1 100300 45
2009-11-06 08:23:34 51°21.45 2°53.382 -999 78 10.1 100300 45
2009-11-06 08:23:39 51°21.464 2°53.385 -999 25 10.1 100310 46
2009-11-06 08:23:44 51°21.478 2°53.39 -999 78 10.1 100310 46
2009-11-06 08:23:49 51°21.492 2°53.393 -999 24 10.1 100310 46
2009-11-06 08:23:54 51°21.506 2°53.397 -999 -999 10.1 100310 46
2009-11-06 08:23:58 51°21.517 2°53.4 -999 23 10.1 100300 46
2009-11-06 08:24:04 51°21.534 2°53.406 -999 78 10.1 100300 46
2009-11-06 08:24:09 51°21.548 2°53.408 -999 44 10.2 100300 46
2009-11-06 08:24:14 51°21.562 2°53.413 -999 78 10.2 100300 46
2009-11-06 08:24:18 51°21.573 2°53.416 0.1 21 10.2 100300 46
2009-11-06 08:24:24 51°21.591 2°53.42 0.1 78 10.2 100300 46
2009-11-06 08:24:29 51°21.605 2°53.424 -999 23 10.2 100310 46
2009-11-06 08:24:34 51°21.619 2°53.428 -999 82 10.2 100310 46
2009-11-06 08:24:38 51°21.63 2°53.43 -999 8 10.2 100310 45
2009-11-06 08:24:44 51°21.647 2°53.435 -999 78 10.2 100310 45
2009-11-06 08:24:49 51°21.661 2°53.438 -999 23 10.3 100300 45
2009-11-06 08:24:54 51°21.676 2°53.441 -999 -999 10.3 100300 45
2009-11-06 08:24:59 51°21.69 2°53.445 -999 23 10.3 100300 46
2009-11-06 08:25:04 51°21.704 2°53.448 -999 78 10.3 100300 46
2009-11-06 08:25:09 51°21.718 2°53.451 -999 23 10.3 100290 46
2009-11-06 08:25:14 51°21.732 2°53.455 -999 83 10.3 100290 46
2009-11-06 08:25:19 51°21.747 2°53.458 -999 25 10.3 100300 46
2009-11-06 08:25:24 51°21.761 2°53.462 -999 78 10.3 100300 46
2009-11-06 08:25:29 51°21.775 2°53.465 -999 23 10.3 100300 46
2009-11-06 08:25:34 51°21.789 2°53.469 -999 78 10.3 100300 46
2009-11-06 08:25:38 51°21.801 2°53.472 -999 25 10.3 100300 45
2009-11-06 08:25:44 51°21.818 2°53.476 -999 78 10.3 100300 45
2009-11-06 08:25:49 51°21.832 2°53.478 -999 23 10.3 100300 46
2009-11-06 08:25:54 51°21.846 2°53.483 -999 -999 10.3 100300 46
2009-11-06 08:25:58 51°21.858 2°53.485 -999 23 10.3 100300 46
2009-11-06 08:26:04 51°21.875 2°53.49 -999 78 10.3 100300 46
2009-11-06 08:26:09 51°21.889 2°53.492 -999 23 10.3 100300 46
2009-11-06 08:26:14 51°21.903 2°53.496 -999 78 10.3 100300 46
2009-11-06 08:26:18 51°21.915 2°53.498 -999 23 10.4 100300 46
2009-11-06 08:26:24 51°21.932 2°53.502 -999 78 10.4 100300 46
2009-11-06 08:26:29 51°21.946 2°53.505 -999 23 10.3 100300 46
2009-11-06 08:26:34 51°21.96 2°53.508 -999 78 10.3 100300 46
2009-11-06 08:26:38 51°21.972 2°53.511 -999 23 10.3 100300 46
2009-11-06 08:26:44 51°21.989 2°53.515 -999 78 10.3 100300 46
2009-11-06 08:26:49 51°22.003 2°53.519 -999 23 10.3 100300 46
2009-11-06 08:26:54 51°22.017 2°53.522 -999 -999 10.3 100300 46
2009-11-06 08:26:58 51°22.029 2°53.525 -999 23 10.2 100310 45
2009-11-06 08:27:04 51°22.046 2°53.528 -999 78 10.2 100310 45
2009-11-06 08:27:09 51°22.06 2°53.532 -999 23 10.2 100300 45
2009-11-06 08:27:14 51°22.074 2°53.535 1.2 79 10.2 100300 45
2009-11-06 08:27:19 51°22.088 2°53.538 0.2 20 10.2 100300 45
2009-11-06 08:27:24 51°22.102 2°53.542 0.1 82 10.2 100300 45
2009-11-06 08:27:29 51°22.116 2°53.545 0.2 22 10.2 100300 45
2009-11-06 08:27:34 51°22.131 2°53.549 0.1 78 10.2 100300 45
2009-11-06 08:27:38 51°22.142 2°53.551 -999 23 10.2 100300 45
2009-11-06 08:27:44 51°22.159 2°53.556 -999 78 10.2 100300 45
2009-11-06 08:27:49 51°22.173 2°53.559 -999 23 10.2 100300 45
2009-11-06 08:27:54 51°22.188 2°53.563 -999 -999 10.2 100300 45
2009-11-06 08:27:58 51°22.199 2°53.566 -999 23 10.2 100290 45
2009-11-06 08:28:04 51°22.216 2°53.57 0.1 83 10.2 100290 45
2009-11-06 08:28:09 51°22.23 2°53.574 1.1 27 10.2 100290 45
2009-11-06 08:28:14 51°22.245 2°53.576 0.8 73 10.2 100290 45
2009-11-06 08:28:18 51°22.256 2°53.58 0.1 22 10.2 100290 45
2009-11-06 08:28:24 51°22.273 2°53.583 0.1 78 10.2 100290 45
2009-11-06 08:28:29 51°22.287 2°53.587 -999 23 10.2 100300 45
2009-11-06 08:28:34 51°22.301 2°53.589 -999 78 10.2 100300 45
2009-11-06 08:28:39 51°22.315 2°53.593 -999 24 10.2 100300 45
2009-11-06 08:28:44 51°22.33 2°53.596 -999 78 10.2 100300 45
2009-11-06 08:28:49 51°22.344 2°53.599 0.1 20 10.2 100290 45
2009-11-06 08:28:54 51°22.358 2°53.603 0.1 -999 10.2 100290 45
2009-11-06 08:28:58 51°22.369 2°53.605 0.1 25 10.1 100290 45
2009-11-06 08:29:04 51°22.386 2°53.609 -999 77 10.1 100290 45
2009-11-06 08:29:09 51°22.4 2°53.612 -999 23 10.2 100300 45
2009-11-06 08:29:14 51°22.415 2°53.615 -999 78 10.2 100300 45
2009-11-06 08:29:19 51°22.429 2°53.618 -999 23 10.1 100300 45
2009-11-06 08:29:24 51°22.443 2°53.622 -999 78 10.1 100300 45
2009-11-06 08:29:29 51°22.457 2°53.625 -999 23 10.1 100300 45
2009-11-06 08:29:34 51°22.472 2°53.628 -999 78 10.1 100300 45
2009-11-06 08:29:38 51°22.483 2°53.631 -999 23 10.2 100300 45
2009-11-06 08:29:44 51°22.5 2°53.635 -999 77 10.2 100300 45
2009-11-06 08:29:49 51°22.515 2°53.639 -999 23 10.2 100290 45
2009-11-06 08:29:54 51°22.529 2°53.642 -999 78 10.2 100290 45
2009-11-06 08:29:58 51°22.541 2°53.646 -999 23 10.2 100290 45
2009-11-06 08:30:04 51°22.558 2°53.648 -999 78 10.2 100290 45
2009-11-06 08:30:09 51°22.572 2°53.653 -999 23 10.2 100300 45
2009-11-06 08:30:14 51°22.587 2°53.656 -999 78 10.2 100300 45
2009-11-06 08:30:18 51°22.598 2°53.659 -999 23 10.2 100290 45
2009-11-06 08:30:24 51°22.616 2°53.663 -999 78 10.2 100290 45
2009-11-06 08:30:29 51°22.63 2°53.667 -999 23 10.2 100290 45
2009-11-06 08:30:34 51°22.644 2°53.671 -999 78 10.2 100290 45
2009-11-06 08:30:38 51°22.656 2°53.674 -999 23 10.2 100290 45
2009-11-06 08:30:44 51°22.674 2°53.678 -999 78 10.2 100290 45
2009-11-06 08:30:49 51°22.688 2°53.682 -999 23 10.2 100290 45
2009-11-06 08:30:54 51°22.702 2°53.686 -999 78 10.2 100290 45
2009-11-06 08:30:58 51°22.714 2°53.689 -999 23 10.2 100290 45
2009-11-06 08:31:04 51°22.731 2°53.693 -999 78 10.2 100290 45
2009-11-06 08:31:09 51°22.746 2°53.697 -999 23 10.3 100290 46
2009-11-06 08:31:14 51°22.76 2°53.7 -999 78 10.3 100290 46
2009-11-06 08:31:19 51°22.775 2°53.704 -999 23 10.3 100290 46
2009-11-06 08:31:24 51°22.789 2°53.708 -999 78 10.3 100290 46
2009-11-06 08:31:29 51°22.804 2°53.711 -999 23 10.3 100290 46
2009-11-06 08:31:34 51°22.818 2°53.715 -999 78 10.3 100290 46
2009-11-06 08:31:38 51°22.83 2°53.718 -999 23 10.3 100290 46
2009-11-06 08:31:44 51°22.847 2°53.722 0.1 78 10.3 100290 46
2009-11-06 08:31:49 51°22.861 2°53.726 0.1 23 10.3 100290 45
2009-11-06 08:31:54 51°22.876 2°53.73 1.5 -999 10.3 100290 45
2009-11-06 08:31:58 51°22.887 2°53.734 1.7 22 10.3 100290 46
2009-11-06 08:32:04 51°22.904 2°53.738 0.3 78 10.3 100290 46
2009-11-06 08:32:09 51°22.919 2°53.741 0.2 23 10.3 100300 43
2009-11-06 08:32:14 51°22.933 2°53.745 0.1 78 10.3 100300 43
2009-11-06 08:32:18 51°22.944 2°53.748 0.1 20 10.2 100300 45
2009-11-06 08:32:24 51°22.962 2°53.753 0.1 77 10.2 100300 45
2009-11-06 08:32:29 51°22.976 2°53.756 -999 23 10.2 100300 45
2009-11-06 08:32:34 51°22.99 2°53.76 -999 78 10.2 100300 45
2009-11-06 08:32:39 51°23.004 2°53.763 -999 23 10.3 100290 44
2009-11-06 08:32:44 51°23.019 2°53.767 -999 78 10.3 100290 44
2009-11-06 08:32:49 51°23.033 2°53.77 -999 23 10.3 100300 45
2009-11-06 08:32:54 51°23.047 2°53.775 -999 -999 10.3 100300 45
2009-11-06 08:32:58 51°23.058 2°53.778 -999 23 10.3 100290 45
2009-11-06 08:33:04 51°23.075 2°53.783 -999 78 10.3 100290 45
2009-11-06 08:33:09 51°23.09 2°53.786 -999 23 10.2 100290 45
2009-11-06 08:33:14 51°23.104 2°53.791 -999 78 10.2 100290 45
2009-11-06 08:33:18 51°23.115 2°53.792 -999 23 10.2 100300 45
2009-11-06 08:33:24 51°23.132 2°53.799 -999 78 10.2 100300 45
2009-11-06 08:33:29 51°23.146 2°53.801 0.8 21 10.2 100290 45
2009-11-06 08:33:34 51°23.16 2°53.806 0.2 78 10.2 100290 45
2009-11-06 08:33:39 51°23.174 2°53.809 0.1 23 10.2 100290 45
2009-11-06 08:33:44 51°23.189 2°53.813 -999 78 10.2 100290 45
2009-11-06 08:33:49 51°23.203 2°53.817 -999 23 10.2 100290 45
2009-11-06 08:33:54 51°23.217 2°53.821 -999 78 10.2 100290 45
2009-11-06 08:33:59 51°23.231 2°53.825 -999 23 10.2 100290 45
2009-11-06 08:34:04 51°23.245 2°53.828 -999 78 10.2 100290 45
2009-11-06 08:34:09 51°23.259 2°53.832 -999 23 10.2 100300 45
2009-11-06 08:34:14 51°23.274 2°53.835 -999 78 10.2 100300 45
2009-11-06 08:34:18 51°23.285 2°53.839 -999 23 10.2 100290 45
2009-11-06 08:34:24 51°23.302 2°53.842 -999 78 10.2 100290 45
2009-11-06 08:34:29 51°23.316 2°53.847 -999 269 10.2 100300 45
2009-11-06 08:34:34 51°23.33 2°53.85 -999 78 10.2 100300 45
2009-11-06 08:34:38 51°23.341 2°53.852 -999 23 10.2 100290 45
2009-11-06 08:34:44 51°23.358 2°53.856 -999 78 10.2 100290 45
2009-11-06 08:34:49 51°23.372 2°53.86 -999 23 10.3 100300 45
2009-11-06 08:34:54 51°23.387 2°53.864 -999 78 10.3 100300 45
2009-11-06 08:34:58 51°23.398 2°53.866 -999 23 10.3 100300 45
2009-11-06 08:35:04 51°23.414 2°53.871 -999 78 10.3 100300 45
2009-11-06 08:35:09 51°23.429 2°53.874 0.1 25 10.3 100290 45
2009-11-06 08:35:14 51°23.442 2°53.879 0.1 78 10.3 100290 45
2009-11-06 08:35:18 51°23.454 2°53.88 0.1 20 10.3 100300 44
2009-11-06 08:35:24 51°23.47 2°53.886 0.1 78 10.3 100300 44
2009-11-06 08:35:29 51°23.484 2°53.889 0.1 23 10.3 100300 45
2009-11-06 08:35:34 51°23.499 2°53.892 -999 78 10.3 100300 45
2009-11-06 08:35:38 51°23.51 2°53.895 -999 23 10.3 100290 45
2009-11-06 08:35:44 51°23.527 2°53.899 -999 78 10.3 100290 45
2009-11-06 08:35:49 51°23.541 2°53.903 -999 23 10.3 100290 45
2009-11-06 08:35:54 51°23.555 2°53.906 -999 -999 10.3 100290 45
2009-11-06 08:35:58 51°23.566 2°53.909 -999 23 10.3 100300 45
2009-11-06 08:36:04 51°23.583 2°53.914 -999 77 10.3 100300 45
2009-11-06 08:36:09 51°23.597 2°53.918 -999 23 10.3 100300 45
2009-11-06 08:36:14 51°23.611 2°53.922 -999 83 10.3 100300 45
2009-11-06 08:36:19 51°23.625 2°53.925 0.2 25 10.3 100300 45
2009-11-06 08:36:24 51°23.639 2°53.929 0.1 78 10.3 100300 45
2009-11-06 08:36:29 51°23.653 2°53.933 0.1 23 10.3 100300 45
2009-11-06 08:36:34 51°23.667 2°53.936 0.1 78 10.3 100300 45
2009-11-06 08:36:38 51°23.678 2°53.94 -999 23 10.3 100300 45
2009-11-06 08:36:44 51°23.695 2°53.944 -999 78 10.3 100300 45
2009-11-06 08:36:49 51°23.709 2°53.948 -999 23 10.3 100300 45
2009-11-06 08:36:54 51°23.723 2°53.951 -999 -999 10.3 100300 45
2009-11-06 08:36:58 51°23.735 2°53.955 -999 23 10.4 100300 45
2009-11-06 08:37:04 51°23.751 2°53.959 -999 78 10.4 100300 45
2009-11-06 08:37:09 51°23.766 2°53.962 0.5 29 10.3 100300 45
2009-11-06 08:37:14 51°23.779 2°53.966 0.1 78 10.3 100300 45
2009-11-06 08:37:19 51°23.793 2°53.969 0.1 20 10.3 100300 45
2009-11-06 08:37:24 51°23.808 2°53.973 0.1 82 10.3 100300 45
2009-11-06 08:37:29 51°23.822 2°53.977 0.1 25 10.3 100290 45
2009-11-06 08:37:34 51°23.835 2°53.981 0.1 78 10.3 100290 45
2009-11-06 08:37:38 51°23.847 2°53.984 -999 24 10.3 100290 45
2009-11-06 08:37:44 51°23.864 2°53.987 -999 78 10.3 100290 45
2009-11-06 08:37:49 51°23.878 2°53.991 -999 23 10.3 100300 45
2009-11-06 08:37:54 51°23.892 2°53.995 -999 -999 10.3 100300 45
2009-11-06 08:37:58 51°23.903 2°53.998 0.1 20 10.3 100290 45
2009-11-06 08:38:04 51°23.92 2°54.002 0.1 78 10.3 100290 45
2009-11-06 08:38:09 51°23.934 2°54.006 0.1 23 10.3 100300 45
2009-11-06 08:38:14 51°23.948 2°54.009 -999 83 10.3 100300 45
2009-11-06 08:38:19 51°23.962 2°54.013 0.1 25 10.3 100300 45
2009-11-06 08:38:24 51°23.976 2°54.016 0.1 78 10.3 100300 45
2009-11-06 08:38:29 51°23.99 2°54.019 -999 23 10.3 100290 45
2009-11-06 08:38:34 51°24.004 2°54.023 -999 78 10.3 100290 45
2009-11-06 08:38:39 51°24.018 2°54.027 -999 23 10.3 100290 45
2009-11-06 08:38:44 51°24.032 2°54.03 0.1 78 10.3 100290 45
2009-11-06 08:38:49 51°24.046 2°54.034 0.1 23 10.3 100300 45
2009-11-06 08:38:54 51°24.06 2°54.038 0.1 -999 10.3 100300 45
2009-11-06 08:38:58 51°24.072 2°54.039 -999 23 10.3 100300 45
2009-11-06 08:39:04 51°24.089 2°54.044 -999 78 10.3 100300 45
2009-11-06 08:39:09 51°24.103 2°54.047 -999 23 10.4 100290 45
2009-11-06 08:39:14 51°24.117 2°54.051 -999 78 10.4 100290 45
2009-11-06 08:39:18 51°24.128 2°54.053 -999 24 10.4 100300 45
2009-11-06 08:39:24 51°24.145 2°54.057 1.7 78 10.4 100300 45
2009-11-06 08:39:29 51°24.159 2°54.06 0.3 23 10.4 100290 45
2009-11-06 08:39:34 51°24.174 2°54.062 0.1 78 10.4 100290 45
2009-11-06 08:39:38 51°24.185 2°54.063 0.1 23 10.4 100290 45
2009-11-06 08:39:44 51°24.202 2°54.065 -999 78 10.4 100290 45
2009-11-06 08:39:49 51°24.217 2°54.067 -999 23 10.4 100300 45
2009-11-06 08:39:54 51°24.231 2°54.068 -999 -999 10.4 100300 45
2009-11-06 08:39:58 51°24.243 2°54.069 -999 23 10.4 100290 45
2009-11-06 08:40:04 51°24.26 2°54.07 1.8 81 10.4 100290 45
2009-11-06 08:40:09 51°24.275 2°54.072 1 22 10.4 100300 45
2009-11-06 08:40:14 51°24.289 2°54.072 0.1 78 10.4 100300 45
2009-11-06 08:40:19 51°24.304 2°54.074 0.1 23 10.4 100300 45
2009-11-06 08:40:24 51°24.318 2°54.075 -999 78 10.4 100300 45
2009-11-06 08:40:29 51°24.333 2°54.075 -999 23 10.4 100300 45
2009-11-06 08:40:34 51°24.347 2°54.076 -999 78 10.4 100300 45
2009-11-06 08:40:38 51°24.359 2°54.077 1.5 27 10.4 100300 44
2009-11-06 08:40:44 51°24.376 2°54.076 0.2 78 10.4 100300 44
2009-11-06 08:40:49 51°24.39 2°54.077 0.1 24 10.4 100290 45
2009-11-06 08:40:54 51°24.405 2°54.077 1.8 -999 10.4 100290 45
2009-11-06 08:40:58 51°24.416 2°54.079 1.7 22 10.4 100300 45
2009-11-06 08:41:04 51°24.434 2°54.078 2 81 10.4 100300 45
2009-11-06 08:41:09 51°24.448 2°54.08 1.9 20 10.4 100290 45
2009-11-06 08:41:14 51°24.462 2°54.081 2.2 74 10.4 100290 45
2009-11-06 08:41:18 51°24.473 2°54.081 0.2 21 10.4 100290 46
2009-11-06 08:41:24 51°24.491 2°54.083 0.3 77 10.4 100290 46
2009-11-06 08:41:29 51°24.505 2°54.084 2 20 10.3 100300 45
2009-11-06 08:41:34 51°24.519 2°54.084 2.5 73 10.3 100300 45
2009-11-06 08:41:38 51°24.531 2°54.086 2.4 21 10.3 100290 45
2009-11-06 08:41:44 51°24.548 2°54.087 2.5 79 10.3 100290 45
2009-11-06 08:41:49 51°24.562 2°54.087 1.7 26 10.3 100290 44
2009-11-06 08:41:54 51°24.576 2°54.088 2.1 76 10.3 100290 44
2009-11-06 08:41:58 51°24.588 2°54.09 1.4 21 10.3 100300 44
2009-11-06 08:42:04 51°24.605 2°54.091 2.1 75 10.3 100300 44
2009-11-06 08:42:09 51°24.62 2°54.093 1.4 24 10.3 100290 44
2009-11-06 08:42:14 51°24.634 2°54.094 1.3 78 10.3 100290 44
2009-11-06 08:42:18 51°24.645 2°54.095 1.7 25 10.3 100290 45
2009-11-06 08:42:24 51°24.662 2°54.096 1.1 78 10.3 100290 45
2009-11-06 08:42:29 51°24.677 2°54.097 0.7 18 10.3 100290 44
2009-11-06 08:42:34 51°24.691 2°54.099 0.2 78 10.3 100290 44
2009-11-06 08:42:39 51°24.705 2°54.099 0.1 23 10.3 100290 45
2009-11-06 08:42:44 51°24.719 2°54.101 -999 78 10.3 100290 45
2009-11-06 08:42:49 51°24.734 2°54.102 0.1 20 10.3 100290 45
2009-11-06 08:42:54 51°24.748 2°54.103 0.1 -999 10.3 100290 45
2009-11-06 08:42:59 51°24.762 2°54.104 -999 23 10.3 100290 45
2009-11-06 08:43:04 51°24.777 2°54.105 -999 78 10.3 100290 45
2009-11-06 08:43:09 51°24.791 2°54.107 -999 23 10.3 100290 45
2009-11-06 08:43:14 51°24.805 2°54.107 -999 78 10.3 100290 45
2009-11-06 08:43:18 51°24.817 2°54.108 -999 23 10.3 100280 44
2009-11-06 08:43:24 51°24.834 2°54.11 -999 78 10.3 100280 44
2009-11-06 08:43:29 51°24.848 2°54.111 0.1 25 10.3 100290 45
2009-11-06 08:43:34 51°24.863 2°54.112 0.1 73 10.3 100290 45
2009-11-06 08:43:38 51°24.874 2°54.112 1.7 21 10.3 100290 45
2009-11-06 08:43:44 51°24.892 2°54.113 1.8 77 10.3 100290 45
2009-11-06 08:43:49 51°24.906 2°54.114 2.2 22 10.3 100290 45
2009-11-06 08:43:54 51°24.921 2°54.115 2 76 10.3 100290 45
2009-11-06 08:43:58 51°24.932 2°54.116 0.3 28 10.3 100280 46
2009-11-06 08:44:04 51°24.95 2°54.116 2.1 74 10.3 100280 46
2009-11-06 08:44:09 51°24.964 2°54.118 0.3 21 10.3 100290 46
2009-11-06 08:44:14 51°24.979 2°54.119 2 76 10.3 100290 46
2009-11-06 08:44:18 51°24.99 2°54.12 0.3 21 10.3 100290 47
2009-11-06 08:44:24 51°25.007 2°54.121 0.1 78 10.3 100290 47
2009-11-06 08:44:29 51°25.022 2°54.122 0.1 23 10.3 100280 45
2009-11-06 08:44:34 51°25.036 2°54.124 -999 78 10.3 100280 45
2009-11-06 08:44:39 51°25.051 2°54.125 -999 29 10.3 100290 45
2009-11-06 08:44:44 51°25.065 2°54.126 1.8 76 10.3 100290 45
2009-11-06 08:44:49 51°25.08 2°54.127 1.4 23 10.3 100280 45
2009-11-06 08:44:54 51°25.094 2°54.129 2 -999 10.3 100280 45
2009-11-06 08:44:58 51°25.106 2°54.129 1.9 21 10.3 100290 44
2009-11-06 08:45:04 51°25.123 2°54.131 1.4 81 10.3 100290 44
2009-11-06 08:45:09 51°25.137 2°54.131 1 25 10.3 100280 43
2009-11-06 08:45:14 51°25.152 2°54.133 0.2 78 10.3 100280 43
2009-11-06 08:45:18 51°25.163 2°54.134 0.1 35 10.3 100290 44
2009-11-06 08:45:24 51°25.181 2°54.136 -999 78 10.3 100290 44
2009-11-06 08:45:29 51°25.195 2°54.138 -999 23 10.3 100280 45
2009-11-06 08:45:34 51°25.21 2°54.138 0.1 73 10.3 100280 45
2009-11-06 08:45:38 51°25.221 2°54.14 1.4 20 10.3 100280 45
2009-11-06 08:45:44 51°25.239 2°54.141 0.2 78 10.3 100280 45
2009-11-06 08:45:49 51°25.253 2°54.143 0.1 23 10.3 100280 45
2009-11-06 08:45:54 51°25.268 2°54.144 0.1 78 10.3 100280 45
2009-11-06 08:45:58 51°25.279 2°54.146 1.7 21 10.3 100280 44
2009-11-06 08:46:04 51°25.296 2°54.147 1.1 74 10.3 100280 44
2009-11-06 08:46:09 51°25.311 2°54.149 0.1 22 10.3 100280 45
2009-11-06 08:46:14 51°25.325 2°54.15 0.7 73 10.3 100280 45
2009-11-06 08:46:18 51°25.336 2°54.152 0.1 22 10.3 100290 44
2009-11-06 08:46:24 51°25.354 2°54.154 0.1 83 10.3 100290 44
2009-11-06 08:46:29 51°25.368 2°54.155 0.2 26 10.3 100290 46
2009-11-06 08:46:34 51°25.382 2°54.157 1.2 83 10.3 100290 46
2009-11-06 08:46:38 51°25.394 2°54.158 1.1 21 10.2 100280 45
2009-11-06 08:46:44 51°25.411 2°54.159 0.2 78 10.2 100280 45
2009-11-06 08:46:49 51°25.425 2°54.161 0.1 29 10.3 100280 45
2009-11-06 08:46:54 51°25.44 2°54.161 0.1 78 10.3 100280 45
2009-11-06 08:46:58 51°25.451 2°54.163 0.1 23 10.3 100290 45
2009-11-06 08:47:04 51°25.468 2°54.164 -999 77 10.3 100290 45
2009-11-06 08:47:09 51°25.482 2°54.165 -999 23 10.3 100290 45
2009-11-06 08:47:14 51°25.497 2°54.167 -999 78 10.3 100290 45
2009-11-06 08:47:19 51°25.511 2°54.168 -999 23 10.3 100280 45
2009-11-06 08:47:24 51°25.525 2°54.168 0.1 78 10.3 100280 45
2009-11-06 08:47:29 51°25.54 2°54.171 0.1 21 10.3 100290 45
2009-11-06 08:47:34 51°25.554 2°54.171 0.1 77 10.3 100290 45
2009-11-06 08:47:38 51°25.565 2°54.174 0.1 23 10.3 100280 45
2009-11-06 08:47:44 51°25.582 2°54.174 0.1 77 10.3 100280 45
2009-11-06 08:47:49 51°25.596 2°54.177 0.1 25 10.3 100280 45
2009-11-06 08:47:54 51°25.611 2°54.177 0.1 78 10.3 100280 45
2009-11-06 08:47:58 51°25.622 2°54.179 -999 24 10.3 100280 46
2009-11-06 08:48:04 51°25.639 2°54.18 1.8 73 10.3 100280 46
2009-11-06 08:48:09 51°25.653 2°54.182 0.2 21 10.4 100280 45
2009-11-06 08:48:14 51°25.667 2°54.182 0.1 83 10.4 100280 45
2009-11-06 08:48:18 51°25.679 2°54.184 0.1 19 10.4 100280 45
2009-11-06 08:48:24 51°25.696 2°54.185 0.2 78 10.4 100280 45
2009-11-06 08:48:29 51°25.71 2°54.186 0.1 23 10.4 100280 45
2009-11-06 08:48:34 51°25.724 2°54.187 0.1 78 10.4 100280 45
2009-11-06 08:48:38 51°25.736 2°54.188 -999 23 10.4 100280 44
2009-11-06 08:48:44 51°25.753 2°54.19 -999 78 10.4 100280 44
2009-11-06 08:48:49 51°25.767 2°54.191 -999 24 10.4 100270 45
2009-11-06 08:48:54 51°25.781 2°54.192 -999 78 10.4 100270 45
2009-11-06 08:48:59 51°25.795 2°54.194 0.1 27 10.4 100280 45
2009-11-06 08:49:04 51°25.81 2°54.195 0.1 78 10.4 100280 45
2009-11-06 08:49:09 51°25.824 2°54.196 -999 24 10.4 100280 45
2009-11-06 08:49:14 51°25.839 2°54.197 -999 78 10.4 100280 45
2009-11-06 08:49:19 51°25.853 2°54.199 -999 23 10.4 100280 45
2009-11-06 08:49:24 51°25.867 2°54.199 -999 78 10.4 100280 45
2009-11-06 08:49:29 51°25.881 2°54.201 2.1 24 10.4 100280 46
2009-11-06 08:49:34 51°25.896 2°54.202 1.7 81 10.4 100280 46
2009-11-06 08:49:38 51°25.907 2°54.204 1 26 10.4 100280 46
2009-11-06 08:49:44 51°25.924 2°54.204 0.3 78 10.4 100280 46
2009-11-06 08:49:49 51°25.938 2°54.206 0.1 24 10.4 100280 46
2009-11-06 08:49:54 51°25.953 2°54.206 2.4 82 10.4 100280 46
2009-11-06 08:49:58 51°25.964 2°54.209 2.9 22 10.5 100270 46
2009-11-06 08:50:04 51°25.981 2°54.208 1.1 73 10.5 100270 46
2009-11-06 08:50:09 51°25.995 2°54.21 1.8 21 10.5 100280 46
2009-11-06 08:50:14 51°26.01 2°54.21 2 74 10.5 100280 46
2009-11-06 08:50:18 51°26.021 2°54.211 2.6 28 10.5 100280 44
2009-11-06 08:50:23 51°26.035 2°54.212 2.4 80 10.5 100280 44
2009-11-06 08:50:29 51°26.052 2°54.213 2.9 36 10.4 100280 45
2009-11-06 08:50:34 51°26.067 2°54.213 2 82 10.4 100280 45
2009-11-06 08:50:39 51°26.081 2°54.214 1.7 36 10.4 100280 44
2009-11-06 08:50:44 51°26.096 2°54.214 0.7 73 10.4 100280 44
2009-11-06 08:50:49 51°26.11 2°54.216 1.8 25 10.4 100280 47
2009-11-06 08:50:54 51°26.124 2°54.216 0.9 82 10.4 100280 47
2009-11-06 08:50:58 51°26.136 2°54.217 0.8 31 10.4 100280 45
2009-11-06 08:51:04 51°26.153 2°54.218 0.3 78 10.4 100280 45
2009-11-06 08:51:09 51°26.167 2°54.22 0.1 35 10.4 100280 45
2009-11-06 08:51:14 51°26.182 2°54.221 0.1 78 10.4 100280 45
2009-11-06 08:51:19 51°26.196 2°54.222 -999 35 10.4 100280 44
2009-11-06 08:51:24 51°26.21 2°54.224 1.9 78 10.4 100280 44
2009-11-06 08:51:29 51°26.224 2°54.225 2.5 32 10.4 100280 45
2009-11-06 08:51:34 51°26.239 2°54.227 3 80 10.4 100280 45
2009-11-06 08:51:39 51°26.253 2°54.229 2.4 32 10.4 100270 46
2009-11-06 08:51:44 51°26.267 2°54.231 2.3 81 10.4 100270 46
2009-11-06 08:51:49 51°26.282 2°54.231 2.6 32 10.4 100270 47
2009-11-06 08:51:54 51°26.296 2°54.234 3.1 77 10.4 100270 47
2009-11-06 08:51:59 51°26.311 2°54.234 0.4 25 10.4 100270 44
2009-11-06 08:52:04 51°26.325 2°54.236 0.1 78 10.4 100270 44
2009-11-06 08:52:09 51°26.339 2°54.237 1.6 33 10.4 100280 45
2009-11-06 08:52:14 51°26.353 2°54.238 0.9 81 10.4 100280 45
2009-11-06 08:52:19 51°26.367 2°54.24 0.3 35 10.4 100290 45
2009-11-06 08:52:24 51°26.382 2°54.241 0.1 282 10.4 100290 45
2009-11-06 08:52:29 51°26.396 2°54.243 -999 268 10.4 100270 46
2009-11-06 08:52:34 51°26.41 2°54.244 -999 287 10.4 100270 46
2009-11-06 08:52:38 51°26.422 2°54.246 -999 41 10.5 100280 45
2009-11-06 08:52:44 51°26.439 2°54.248 -999 78 10.5 100280 45
2009-11-06 08:52:49 51°26.453 2°54.249 -999 24 10.5 100270 46
2009-11-06 08:52:54 51°26.467 2°54.25 -999 78 10.5 100270 46
2009-11-06 08:52:58 51°26.479 2°54.25 0.1 29 10.5 100270 46
2009-11-06 08:53:03 51°26.493 2°54.252 0.4 79 10.5 100270 46